User: anonymous   Login
Location: Unspecified
(0.0000°N, 0.0000°E)
Time: 01:11:15
(UTC+00:00)
Language:

Vanguard 1 Rocket - Orbit

View from above orbital plane
View from above orbital plane
View from above satellite
View from above satellite

Ground track
Ground track

The orbit data is extracted from the following two-line orbital elements,

1 00016U 58002A   22330.48833276 -.00000114  00000-0 -13152-3 0  9996
2 00016  34.2617  98.7131 2027177  39.2416 333.8895 10.48812920552491
Epoch (UTC): 26 November 2022 11:43:11
Eccentricity: 0.2027177
inclination: 34.2617°
perigee height: 650 km
apogee height: 4225 km
right ascension of ascending node: 98.7131°
argument of perigee: 39.2416°
revolutions per day: 10.48812920
mean anomaly at epoch: 333.8895°
orbit number at epoch: 55249

The dashed part of the orbit path shows where the satellite is in the earth's shadow,  

DLR